Tracking 17155 objects as of 30-July-2015
HD Live streaming from Space Station

GLOBALSTAR M044

Track GLOBALSTAR M044 now!
10-day predictions
GLOBALSTAR M044 is classified as:


NORAD ID: 25678
Int'l Code: 1999-019C
Perigee: 1,727.4 km
Apogee: 1,737.3 km
Inclination: 52.0 °
Period: 121.0 minutes
Semi major axis: 8103 km
RCS: 2.4818 m2 (large)
Launch date: April 15, 1999
Source: Globalstar (GLOB)
Your satellite tracking list
Your tracking list is empty





NASA's NSSDC Master Catalog

Two Line Element Set (TLE):
1 25678U 99019C   15210.12737008 -.00000048  00000-0  50327-3 0  9996
2 25678 051.9952 252.5011 0006124 270.6122 123.4710 11.90166059741323

Source of the keplerian elements: AFSPC

N2YO: 256